Miscellaneous Local Product
Issued by NWS North Platte, NE

Home | Current Version | Previous Version | Graphics & Text | Print | Product List | Glossary On
Versions: 1 2 3 4 5 6 7 8 9 10 11 12 13 14 15 16 17 18 19 20 21 22 23 24 25 26 27 28 29 30 31 32 33 34 35 36 37 38 39 40 41 42 43 44 45 46 47 48 49 50
000
AXUS43 KLBF 271710
MISLBF


WESTERN AND NORTH CENTRAL NEBRASKA HOURLY WEATHER ROUNDUP
NATIONAL WEATHER SERVICE NORTH PLATTE NE
1200 PM CDT THU AUG 27 2015

NOTE: "FAIR" INDICATES FEW OR NO CLOUDS BELOW 12,000 FEET WITH NO
SIGNIFICANT WEATHER AND/OR OBSTRUCTIONS TO VISIBILITY.

NOTE: STATIONS NOT REPORTING VARIABLES SUCH AS SKY/WEATHER OR
PRESSURE ARE PROVIDED BY THE NEBRASKA DEPARTMENT OF
ROADS...RAWS...AND APRS NETWORKS...AND ARE NOT UNDER
NATIONAL WEATHER SERVICE QUALITY CONTROL.

...OBSERVATIONS IN AND NEAR THE EASTERN PANHANDLE OF NEBRASKA...

CITY           SKY/WX    TMP DP  RH WIND       PRES   REMARKS
PINE RIDGE     PTSUNNY   74  57  55 N10       30.03R
CHADRON        PTSUNNY   76  56  49 N10       30.04R
ALLIANCE       PTSUNNY   75  59  57 N16       30.03S
SIDNEY         SUNNY     83  53  35 NW25G38   30.04S
CRESCENT LAKE    N/A     74  64  69 N14G23      N/A
BIG SPRINGS      N/A     81  67  61 NW5         N/A
$$

...OBSERVATIONS IN NORTH CENTRAL NEBRASKA...

CITY           SKY/WX    TMP DP  RH WIND       PRES   REMARKS
THEDFORD       PTSUNNY   78  67  69 N6        29.95R
AINSWORTH      MOSUNNY   76  67  72 E5        29.94S
O`NEILL        CLOUDY    72  68  89 SE12      29.94F
ORD            MOSUNNY   76  67  73 SE10G20   29.91S
BROKEN BOW     PTSUNNY   79  67  66 SE14G22   29.92R
SPRINGVIEW       N/A     76  68  76 E6          N/A
SARGENT          N/A     76  69  79 SE3         N/A
CHAMBERS         N/A     81  69  67 E7          N/A
EWING            N/A     72  67  86 E3G12       N/A
$$

...OBSERVATIONS IN SOUTHWEST NEBRASKA AND FAR NORTHEAST COLORADO...

CITY           SKY/WX    TMP DP  RH WIND       PRES   REMARKS
WRAY           FAIR      87  52  30 NW18G26   29.98S
HOLYOKE        FAIR      84  61  45 NW16G28   29.98R
IMPERIAL       MOSUNNY   84  57  39 N13       29.92F
OGALLALA       MOSUNNY   82  55  39 NW10      29.94F
NORTH PLATTE   CLOUDY    77  64  64 SE9       29.90F
MCCOOK         PTSUNNY   88  55  32 VRB5      29.89S
LEXINGTON      PTSUNNY   78  69  73 E10       29.91F
PAXTON           N/A     76  60  57 W3          N/A
BRADY            N/A     76  65  68 CALM        N/A
CALLAWAY         N/A     76  71  85 SE10        N/A
$$

...OBSERVATIONS IN CENTRAL LINCOLN COUNTY AREA...

CITY           SKY/WX    TMP DP  RH WIND       PRES   REMARKS
N.P. AIRPORT   CLOUDY    77  64  64 SE9       29.90F
N.P. DOWNTOWN    N/A     77  65  66 E3G12       N/A
N.P. SOUTHEAST   N/A     78  66  66 CALM        N/A
$$

...SOME OBSERVATIONS FROM AROUND THE REGION...

CITY           SKY/WX    TMP DP  RH WIND       PRES   REMARKS
DENVER         PTSUNNY   80  48  32 NW7       30.16S
LARAMIE        LGT RAIN  59  55  87 NW7       30.33R
CHEYENNE       PTSUNNY   73  48  41 NW21G29   30.21S
SCOTTSBLUFF    PTSUNNY   76  58  53 NW13      30.05S
RAPID CITY     CLOUDY    70  61  73 N7        30.06R
PIERRE         CLOUDY    74  65  73 E6        29.96F
WINNER         CLOUDY    78  67  68 NE8       29.96R
SIOUX FALLS    CLOUDY    73  64  73 VRB6      30.02R
OMAHA          CLOUDY    72  60  66 SE20      30.07R
GRAND ISLAND   PTSUNNY   76  68  76 SE10      29.94F
KANSAS CITY    CLOUDY    74  65  73 S12       30.08S
WICHITA        PTSUNNY   82  65  56 SE25G32   30.06R
HAYS             N/A    N/A N/A N/A MISG        N/A
LIBERAL        SUNNY     93  61  33 SW23G29   30.04F HX  93
GOODLAND       MOSUNNY   88  50  27 NW15      29.98S
$$



USA.gov is the U.S. government's official web portal to all federal, state and local government web resources and services.